Regional Weather Roundup
Issued by NWS Wakefield, VA

Home | Current Version | Previous Version | Text Only | Print | Product List | Glossary On
Versions: 1 2 3 4 5 6 7 8 9 10 11 12 13 14 15 16 17 18 19 20 21 22 23 24 25 26 27 28 29 30 31 32 33 34 35 36 37 38 39 40 41 42 43 44 45 46 47 48 49 50
000
ASUS41 KAKQ 110915
RWRAKQ

REGIONAL WEATHER ROUNDUP
NATIONAL WEATHER SERVICE WAKEFIELD VA
400 AM EST THU FEB 11 2016

Note: "fair" indicates few or no clouds below 12,000 feet with no
significant weather and/or obstructions to visibility. * = Denotes
station may not report precipitation (e.g., rain,snow,etc.),
thunder or fog.

VAZ042-051-052>054-056-111000-
NORTHERN VIRGINIA

CITY           SKY/WX    TMP DP  RH WIND       PRES   REMARKS
WASH NATIONAL  FAIR      24   5  44 NW14      30.00S WCI  12
DULLES         MOCLDY    21   8  57 W12       29.99R WCI   9
FORT BELVOIR   FAIR      23   6  48 NW14      30.00R WCI  10
QUANTICO       FAIR      25   4  40 NW10      30.03R WCI  15
FREDERICKSBRG* FAIR      23   6  47 W5        30.01S
STAFFORD*      FAIR      22   3  44 W6        30.05R
WARRENTON      FAIR      22  10  58 CALM      30.00R
CULPEPER*      FAIR      21   4  48 NW9       30.01S
MANASSAS*      FAIR      21   7  53 NW8       30.01R
LEESBURG*      FAIR      23  10  58 NW16G23   29.99S WCI  10
WINCHESTER     FAIR      21   5  49 W10       29.97R WCI  10
FRONT ROYAL*   FAIR      19   1  45 SW5G17    29.97S
LURAY*         FAIR      18   0  45 W6        29.98S
$$

VAZ048-049-060>072-079>083-111000-
CENTRAL AND SOUTH CENTRAL VIRGINIA

CITY           SKY/WX    TMP DP  RH WIND       PRES   REMARKS
RICHMOND       FAIR      23   4  44 W12       30.03R WCI  12
CHESTERFIELD*  FAIR      23  -2  33 W8        30.04S
PETERSBURG*    FAIR      23   3  41 W7        30.06R
HANOVER        FAIR      22   4  46 VRB6      30.04R
TAPPAHANNOCK*  FAIR      24   7  49 W7        30.02R
QUINTON*       FAIR      24   5  45 W6        30.02S
CHARLOTTSVILLE FAIR      20  -1  40 W5        29.99S
GORDONSVILLE*  FAIR      21   3  46 W3        30.00S
ORANGE*        FAIR      23   5  46 CALM      30.01F
LOUISA*        FAIR      19   5  53 W6        29.99S
BUMPASS*       FAIR      19   6  55 SW5       30.01S
FARMVILLE*     FAIR      22   1  40 W3        30.03S
CREWE*         FAIR      21   6  52 W5        30.05R
FORT PICKETT*  FAIR      19   5  55 W5        30.05R
CHASE CITY*    FAIR      20   3  46 W3        30.07R
CLARKSVILLE*   FAIR      21   5  49 W5        30.07S
SOUTH HILL*    FAIR      21   7  54 W7        30.12R
LAWRENCEVILLE* FAIR      21   5  50 CALM      30.06R
EMPORIA*       FAIR      23   5  46 SW7       30.09R
$$

VAZ088>098-111000-
SOUTHEAST VIRGINIA

CITY           SKY/WX    TMP DP  RH WIND       PRES   REMARKS
NORFOLK        FAIR      27   7  42 VRB7      30.02R
VIRGINIA BEACH FAIR      30   7  37 W12       30.01S WCI  20
NORFOLK NAVAL  FAIR      27   8  44 W18       30.04R WCI  14
WEST POINT*    FAIR      26   7  44 W10G20    30.04R WCI  16
SALUDA*        FAIR      24   6  44 W7        30.01R
NEWPORT NEWS   FAIR      26   5  40 NW17G24   30.02S WCI  13
LANGLEY AFB    FAIR      26   5  41 W13       30.01R WCI  14
FORT EUSTIS    FAIR      25   7  45 W12       30.01R WCI  15
WILLIAMSBURG*  FAIR      27   9  46 NW14      30.04R WCI  15
HR EXEC AP*    FAIR      25   7  46 NW9       30.05S
FRANKLIN*      FAIR      24   7  48 W12       30.07R WCI  13
US460-WAKEFLD  FAIR      23   8  52 W5        30.05R
$$

VAZ020-022-025-037-045-111000-
WEST CENTRAL AND SOUTHWEST VIRGINIA

CITY           SKY/WX    TMP DP  RH WIND       PRES   REMARKS
STAUNTON*      FAIR      20   3  48 W10       29.99S WCI   8
WAYNESBORO*    FAIR      14  -3  46 W7        29.96R
HOT SPRINGS VA CLOUDY     6  -1  75 W21G35    29.73S WCI -15
LYNCHBURG      FAIR      15   1  53 SW3       30.03R
DANVILLE       FAIR      20   4  50 W3        30.09R
SOUTH BOSTON*  FAIR      21   2  45 W5        30.09R
MARTINSVILLE   FAIR       8   3  78 CALM      30.09S
ROANOKE        FAIR      18   3  52 W16G28    30.03F WCI   3
BLACKSBURG     MOCLDY    15   6  67 NW22G28   29.98F WCI  -3
DUBLIN*        CLOUDY    17   8  67 W18G24    29.99F WCI   0
MARION*        CLOUDY    15   7  68 W17       30.00R WCI  -1
HILLSVILLE*    CLOUDY    12   6  74 W15G24    29.91S WCI  -4
RICHLANDS*     LGT SNOW  12   7  77 W9        30.00R
WISE*          FLURRIES  16   7  67 W7        30.02S
ABINGDON*      CLOUDY    18   6  61 W6        30.06S
$$

MDZ021>025-VAZ099-100-111000-
SOUTHERN MARYLAND AND THE DELMARVA PENINSULA

CITY           SKY/WX    TMP DP  RH WIND       PRES   REMARKS
PATUXENT RIVER CLEAR     23   6  48 W10       29.98S WCI  12
BAY BRIDGE APT   N/A     25   9  50 W16G23    29.97R WCI  12
LEONARDTOWN    CLEAR     23   7  50 W9        30.00R
DOVER          CLEAR     24  10  55 W14G22    29.91R WCI  12
GEORGETOWN     CLEAR     25   8  48 W14G22    29.94R WCI  13
EASTON         CLEAR     25   9  51 NW17G28   29.99S WCI  11
CAMBRIDGE      CLEAR     25   5  42 W17G28    29.97R WCI  11
SALISBURY      CLEAR     25   9  50 W13G22    29.95R WCI  14
OCEAN CITY     CLEAR     25  10  53 NW8G20    29.95R
WALLOPS ISLAND FAIR      25   9  50 NW10      29.97R WCI  15
ACCOMACK*      FAIR      28   5  37 NW17G24   29.98R WCI  16
$$

NCZ012>017-030>032-111000-
NORTH CENTRAL AND EASTERN NORTH CAROLINA

CITY           SKY/WX    TMP DP  RH WIND       PRES   REMARKS
ROANOKE RAPIDS FAIR      23   9  54 W3        30.08S
RALEIGH        CLEAR     23   5  46 NW3       30.11R
ELIZABETH CITY PTCLDY    24  11  57 W10       30.06R WCI  14
AHOSKIE*       CLEAR     24   5  45 CALM      30.09R
EDENTON*       PTCLDY    28   8  43 NW12G18   30.08R WCI  18
CURRITUCK*     PTCLDY    27  10  48 W8        30.04S
KILL DEVIL HLS PTCLDY    28  12  50 W13G22    30.03R WCI  18
MANTEO         PTCLDY    28  10  47 NW16G22   30.05R WCI  16
CAPE HATTERAS  CLEAR     30  13  49 NW12G23   30.07R WCI  20
TARBORO*       FAIR      24  11  57 W6        30.11R
GOLDSBORO      CLEAR     27   7  43 W8        30.10R
WASHINGTON     PTCLDY    26  10  49 NW5       30.10R
GREENVILLE     CLEAR     27  12  54 NW3       30.12R
NEW BERN       CLEAR     27  10  49 W7        30.12R
WILMINGTON     CLEAR     29  12  49 NW6       30.13R
$$

VAZ048-111000-
ELSEWHERE

CITY           SKY/WX    TMP DP  RH WIND       PRES   REMARKS
HARRISBURG PA  MOCLDY    21   8  57 W14       29.90R WCI   8
BALTIMORE      MOCLDY    22   6  50 W15       29.95S WCI   9
ANNAPOLIS      CLEAR     24   9  52 W14G21    29.96S WCI  12
ANDREWS AFB    FAIR      22   4  44 W18       29.96S WCI   8
PHILADELPHIA   MOCLDY    24  10  55 W16G25    29.89S WCI  11
HENDERSON NC   CLEAR     21   5  49 CALM      30.08R
GREENSBORO     CLEAR     19   3  49 NW6       30.07R
ROCKY MOUNT    CLEAR     24   9  52 W5        30.11R
$$

VAZ100-111000-
MARINE

STATION/POSITION TIME  TEMP    WIND        PRES    WAVE   SWELL
                       AIR SEA DIR/SP/G            HT/PER HT/PER
                 (UTC) (F)     (DEG/KT/KT) (MB)    (FT/S) (FT/S)
BRANDYWINE LGT   0800   26     320/ 22/ 31 1012.3R
CAPE MAY NJ      0800   27 39  300/ 24/ 33 1012.0R
LEWES DE         0800   27 39  290/ 18/ 21 1012.9R
15NM E FENWICK I 0850   28 42              1012.7R   5/ 5
OCEAN-CITY-INLET 0800   27 40  320/ 13/ 19 1013.0R
WACHAPREAGUE VA  0800   28 41  280/  5/ 18 1014.9R
THOMAS POINT MD  0900   24 38  300/ 23/ 27 1015.0
GOOSES REEF MD   0900   26 39  310/ 19/ 23 1015.9R   2/ 3
COVE POINT MD    0800   24     330/ 14/ 23 1015.8R
SOLOMONS ISLAND  0800   26 40  300/ 11/ 16   N/A
BISHOPS HEAD MD  0800   28 36  300/ 24/ 30 1014.2R
PINEY POINT MD   0800          330/ 20/ 25   N/A
POTOMAC MD       0900   28 40  310/ 21/ 27 1014.5R   3/ 3
CAMBRIDGE MD     0800   26 39  280/ 17/ 25 1013.9R
LEWISETTA VA     0800   26 40  300/ 11/ 14 1015.5R
RAPPAHANNOCK LGT 0800          280/ 22/ 25 1015.3R
STINGRAY PT      0900   28 41  300/ 19/ 25 1015.8R   2/ 2
YORK RVR RNG VA  0800   28     300/ 19/ 23 1015.1R
YORKTOWN VA      0812   27 42  280/ 15/ 19 1016.1R
JAMESTOWN VA     0900   27 43  280/ 14/ 19   N/A     1/ 2
DOMINION TERM VA 0800   28     300/ 20/ 26 1016.2R
KIPTOPEKE VA     0800      42  310/ 20/ 25   N/A
CHES BAY BRIDGE  0800   29 42  270/ 19/ 24 1015.8R
CAPE HENRY VA    0800   28     290/ 21/ 28   N/A
CHESAPEAKE LGHT  0800   30     300/ 25/ 27 1016.2R
WILLOUBY STN VA  0800   28     300/ 20/ 25 1017.0R
CAPE HENRY BUOY  0828      44                N/A     4/ 4   2/13
1ST LANDING BUOY 0900      41                N/A     2/ 3
CAPE CHARLES BUO 0826      43                N/A     3/ 3   2/13
OFFSHORE WE BUOY 0821      45                N/A     6/ 5   2/11
64NM E OF VA BCH 0850   33 49  300/ 23/ 29 1014.2R   7/ 6   2/12
DUCK PIER NC     0800   28     290/ 19/ 24 1016.2R
44100 DUCK FRF   0824      46                N/A     5/ 5   2/13
44056 DUCK FRF   0811      44                N/A     3/13   2/13
OREGON INLET NC  0800   29 42  290/ 19/ 24 1016.9R
HATTERAS NC      0800   32 47  290/ 28/ 32 1017.3R
DIAMOND SHLS NC  0850   36 71  310/ 23/ 31 1017C1F1C2F2C3F3C4F4C5F5C6F6C7F7C8M1C9!


USA.gov is the U.S. government's official web portal to all federal, state and local government web resources and services.